Location: McFarlands Corners
(41.4117°N, 81.3382°W)
Time: 19:33:06
(UTC+00:00)

Transit 4A - Pass Details

Date: 18 February 2026
Orbit: 864 x 977 km, 66.8° (Epoch: 10 March)

Event Time Altitude Azimuth Distance (km) Brightness Sun altitude
Rises 16:18:50 0° 337° (NNW) 3,597 10.5 34.0°
Reaches altitude 10° 16:21:58 10° 352° (N) 2,670 9.9 34.2°
Maximum altitude 16:26:46 23° 43° (NE) 1,938 9.6 34.6°
Drops below altitude 10° 16:31:37 10° 93° (E) 2,708 10.7 34.9°
Sets 16:34:48 0° 108° (ESE) 3,662 11.5 35.1°
